FW4624 Weather Reports


time (UTC)temp
C
wind
direction
speed
KPH
gust
KPH
rain 1hr
cm
rain 24hr
cm
rain mn
cm
humidity
%
barometer
mb
20260906040038 8 263 0.0 0.0 0.00 0.00 0.00 93 1028.1
20260906035532 8 263 0.0 0.0 0.00 0.00 0.00 93 1028.1
20260906035031 8 263 0.0 0.0 0.00 0.00 0.00 93 1028.0
20260906034540 8 263 0.0 0.0 0.00 0.00 0.00 93 1028.1
20260906034032 8 263 0.0 0.0 0.00 0.00 0.00 92 1028.2
20260906033529 8 263 0.0 0.0 0.00 0.00 0.00 93 1028.0
20260906033030 8 263 0.0 0.0 0.00 0.00 0.00 93 1028.0
20260906032533 8 263 0.0 0.0 0.00 0.00 0.00 93 1028.0
20260906032028 8 263 0.0 0.0 0.00 0.00 0.00 93 1028.0
20260906031532 8 263 0.0 0.0 0.00 0.00 0.00 92 1027.9
20260906031029 9 263 0.0 0.0 0.00 0.00 0.00 93 1027.9
20260906030528 9 263 0.0 3.2 0.00 0.00 0.00 93 1027.9
20260906030027 9 263 0.0 3.2 0.00 0.00 0.00 93 1028.1
20260906025529 9 263 0.0 3.2 0.00 0.00 0.00 93 1028.1
20260906025028 8 263 0.0 0.0 0.00 0.00 0.00 92 1028.1
20260906024526 8 263 0.0 0.0 0.00 0.00 0.00 92 1028.0
20260906024024 9 263 0.0 0.0 0.00 0.00 0.00 92 1028.0
20260906023526 10 263 0.0 0.0 0.00 0.00 0.00 92 1028.1
20260906023022 10 263 0.0 0.0 0.00 0.00 0.00 92 1027.9
20260906022522 10 263 0.0 0.0 0.00 0.00 0.00 92 1027.9
20260906022022 10 263 0.0 0.0 0.00 0.00 0.00 92 1027.9
20260906021522 9 263 0.0 0.0 0.00 0.00 0.00 91 1028.0
20260906021024 10 263 0.0 1.6 0.00 0.00 0.00 91 1027.9
20260906020521 10 263 0.0 4.8 0.00 0.00 0.00 91 1027.9
20260906020021 10 263 1.6 4.8 0.00 0.00 0.00 91 1027.8
20260906015520 10 266 0.0 3.2 0.00 0.00 0.00 92 1027.9
20260906015020 10 266 0.0 3.2 0.00 0.00 0.00 92 1027.8
20260906014523 10 266 0.0 3.2 0.00 0.00 0.00 92 1027.9
20260906014019 10 266 0.0 1.6 0.00 0.00 0.00 92 1027.8
20260906013518 10 266 0.0 1.6 0.00 0.00 0.00 92 1027.7
20260906013026 10 266 0.0 0.0 0.00 0.00 0.00 92 1027.6
20260906012517 10 266 0.0 0.0 0.00 0.00 0.00 91 1027.7
20260906012017 9 266 0.0 0.0 0.00 0.00 0.00 91 1027.6
20260906011520 10 266 0.0 0.0 0.00 0.00 0.00 91 1027.6
20260906011016 10 266 0.0 0.0 0.00 0.00 0.00 91 1027.6
20260906010515 10 266 0.0 0.0 0.00 0.00 0.00 91 1027.6
20260906010016 10 266 0.0 1.6 0.00 0.00 0.00 91 1027.6
20260906005518 10 266 0.0 1.6 0.00 0.05 0.00 90 1027.6
20260906005013 10 266 0.0 3.2 0.00 0.05 0.00 90 1027.4
20260906004511 11 266 0.0 4.8 0.00 0.05 0.00 90 1027.4
20260906004014 11 266 1.6 4.8 0.00 0.05 0.00 90 1027.3
20260906003511 11 266 0.0 0.0 0.00 0.05 0.00 89 1027.4
20260906003011 11 266 0.0 0.0 0.00 0.05 0.00 89 1027.5
20260906002510 11 266 0.0 3.2 0.00 0.05 0.00 88 1027.4
20260906002009 11 266 0.0 3.2 0.00 0.05 0.00 87 1027.4
20260906001508 11 266 1.6 3.2 0.00 0.05 0.00 86 1027.3
20260906001007 12 266 0.0 0.0 0.00 0.05 0.00 85 1027.4
20260906000507 12 267 0.0 3.2 0.00 0.05 0.00 86 1027.4
20260906000007 12 267 1.6 3.2 0.00 0.05 0.00 86 1027.4
20260905235506 12 266 0.0 0.0 0.00 0.05 0.00 86 1027.4
20260905235006 12 267 0.0 0.0 0.00 0.05 0.00 86 1027.5
20260905234505 12 267 0.0 1.6 0.00 0.05 0.00 86 1027.4
20260905234005 12 266 0.0 3.2 0.00 0.05 0.00 85 1027.4
20260905233505 12 266 0.0 3.2 0.00 0.05 0.00 85 1027.3
20260905233012 12 266 1.6 3.2 0.00 0.05 0.00 87 1027.3
20260905232507 12 267 0.0 0.0 0.00 0.05 0.00 86 1027.4
20260905232004 12 267 0.0 0.0 0.00 0.05 0.00 86 1027.3
20260905231503 12 266 0.0 1.6 0.00 0.05 0.00 85 1027.2
20260905231002 12 267 0.0 4.8 0.00 0.05 0.00 85 1027.1
20260905230502 12 266 1.6 4.8 0.00 0.05 0.00 85 1027.1
20260905230002 12 266 0.0 0.0 0.00 0.05 0.00 86 1027.0
20260905225501 12 266 0.0 1.6 0.00 0.08 0.00 86 1027.2
20260905225001 12 266 0.0 6.4 0.00 0.08 0.00 86 1027.1
20260905224501 12 264 0.0 6.4 0.00 0.08 0.00 85 1027.1
20260905224100 12 263 0.0 0.0 0.00 0.08 0.00 85 1027.1
20260905223559 12 263 0.0 0.0 0.00 0.08 0.00 84 1027.0
20260905223059 12 263 0.0 4.8 0.00 0.08 0.00 85 1027.0
20260905222600 12 263 0.0 0.0 0.00 0.08 0.00 85 1026.9
20260905222100 12 263 0.0 1.6 0.00 0.08 0.00 85 1026.8
20260905221601 12 263 0.0 3.2 0.00 0.08 0.00 84 1026.8
20260905221059 12 263 0.0 3.2 0.00 0.08 0.00 84 1026.7
20260905220555 12 263 0.0 1.6 0.00 0.08 0.00 85 1026.7
20260905220055 12 263 0.0 0.0 0.00 0.08 0.00 85 1026.7
20260905215554 12 263 0.0 0.0 0.00 0.10 0.08 84 1026.6
20260905215057 13 263 0.0 1.6 0.00 0.10 0.08 83 1026.4
20260905214550 13 263 0.0 1.6 0.00 0.10 0.08 82 1026.4
20260905214049 13 263 0.0 4.8 0.00 0.10 0.08 81 1026.4
20260905213549 13 263 1.6 4.8 0.00 0.10 0.08 81 1026.2
20260905213048 13 263 0.0 0.0 0.00 0.10 0.08 81 1026.2
20260905212548 13 263 0.0 0.0 0.00 0.10 0.08 81 1026.1
20260905212047 13 263 0.0 0.0 0.00 0.10 0.08 81 1026.0
20260905211554 13 263 0.0 0.0 0.00 0.10 0.08 80 1026.0
20260905211047 13 263 0.0 0.0 0.00 0.10 0.08 80 1025.9
20260905210546 13 263 0.0 0.0 0.00 0.10 0.08 80 1025.9
20260905210047 14 263 0.0 0.0 0.00 0.10 0.08 79 1025.8
20260905205546 14 263 0.0 0.0 0.00 0.15 0.08 79 1025.9
20260905205047 14 263 0.0 0.0 0.00 0.15 0.08 77 1025.9
20260905204545 15 263 0.0 0.0 0.00 0.15 0.08 78 1025.9
20260905204045 15 263 0.0 0.0 0.00 0.15 0.08 77 1025.8
20260905203548 15 263 0.0 0.0 0.00 0.15 0.08 77 1025.8
20260905203052 15 263 0.0 1.6 0.00 0.15 0.08 76 1025.7
20260905202543 15 263 0.0 0.0 0.00 0.15 0.08 75 1025.7
20260905202042 15 263 0.0 0.0 0.00 0.15 0.08 74 1025.6
20260905201542 15 263 0.0 0.0 0.00 0.15 0.08 73 1025.6
20260905201041 16 263 0.0 3.2 0.00 0.15 0.08 72 1025.5
20260905200541 16 263 0.0 3.2 0.00 0.15 0.08 72 1025.4
20260905200041 16 263 0.0 1.6 0.00 0.15 0.08 71 1025.4
20260905195540 16 263 0.0 3.2 0.00 0.28 0.08 70 1025.1
20260905195044 16 263 0.0 3.2 0.00 0.28 0.08 69 1025.2
20260905194539 16 263 1.6 3.2 0.00 0.28 0.08 68 1025.2
20260905194038 17 263 1.6 3.2 0.00 0.28 0.08 68 1025.0
20260905193538 17 263 0.0 4.8 0.00 0.28 0.08 67 1025.0
20260905193055 17 263 1.6 6.4 0.00 0.28 0.08 66 1025.1
20260905192538 17 263 0.0 6.4 0.00 0.28 0.08 66 1025.0
20260905192038 17 252 1.6 4.8 0.00 0.28 0.08 65 1025.0
20260905191541 17 252 0.0 3.2 0.00 0.28 0.08 65 1025.0
20260905191037 17 252 0.0 3.2 0.00 0.28 0.08 65 1024.9
20260905190536 17 252 0.0 3.2 0.00 0.28 0.08 64 1024.8
20260905190037 17 252 0.0 3.2 0.00 0.28 0.08 64 1024.8
20260905185537 17 252 1.6 4.8 0.00 0.28 0.08 64 1024.8
20260905185037 18 252 0.0 11.3 0.00 0.28 0.08 64 1024.7
20260905184536 17 251 1.6 11.3 0.00 0.28 0.08 64 1024.7
20260905184035 17 323 0.0 0.0 0.00 0.28 0.08 65 1024.7
20260905183535 18 323 0.0 0.0 0.00 0.28 0.08 64 1024.7
20260905183034 18 323 0.0 0.0 0.00 0.28 0.08 63 1024.8
20260905182537 18 323 0.0 0.0 0.00 0.28 0.08 63 1024.6
20260905182034 18 323 0.0 0.0 0.00 0.28 0.08 61 1024.4
20260905181533 18 323 0.0 1.6 0.00 0.28 0.08 60 1024.4
20260905181032 18 323 0.0 3.2 0.00 0.28 0.08 60 1024.4
20260905180532 18 323 0.0 3.2 0.00 0.28 0.08 60 1024.3
20260905180032 19 323 0.0 3.2 0.00 0.28 0.08 60 1024.2
20260905175530 19 323 0.0 4.8 0.00 0.28 0.08 58 1024.2
20260905175030 19 323 0.0 4.8 0.00 0.28 0.08 57 1024.1
20260905174530 19 323 0.0 3.2 0.00 0.28 0.08 57 1024.0
20260905174029 20 323 0.0 3.2 0.00 0.28 0.08 56 1024.0
20260905173529 20 323 0.0 3.2 0.00 0.28 0.08 56 1024.0
20260905173029 20 323 0.0 4.8 0.00 0.28 0.08 55 1024.0
20260905172528 20 323 1.6 4.8 0.00 0.28 0.08 54 1023.9
20260905172028 20 323 0.0 4.8 0.00 0.28 0.08 54 1024.0
20260905171534 20 323 1.6 6.4 0.00 0.28 0.08 53 1023.9
20260905171027 21 322 1.6 6.4 0.00 0.28 0.08 52 1023.9
20260905170527 21 333 1.6 9.7 0.00 0.28 0.08 52 1023.8
20260905170027 21 313 3.2 12.9 0.00 0.28 0.08 51 1023.9
20260905165527 21 271 3.2 11.3 0.00 0.28 0.08 51 1023.8
20260905165028 21 300 3.2 14.5 0.00 0.28 0.08 51 1023.9
20260905164527 21 275 3.2 19.3 0.00 0.28 0.08 50 1023.9
20260905164026 21 275 3.2 19.3 0.00 0.28 0.08 50 1023.8
20260905163530 21 270 3.2 6.4 0.00 0.28 0.08 49 1023.6
20260905163025 22 284 3.2 12.9 0.00 0.28 0.08 49 1023.5
20260905162525 22 284 1.6 12.9 0.00 0.28 0.08 50 1023.5
20260905162024 22 333 1.6 12.9 0.00 0.28 0.08 48 1023.5
20260905161524 22 311 3.2 14.5 0.00 0.28 0.08 48 1023.5
20260905161024 22 311 4.8 17.7 0.00 0.28 0.08 47 1023.5
20260905160523 22 340 4.8 17.7 0.00 0.28 0.08 48 1023.3
20260905160028 22 303 3.2 11.3 0.00 0.28 0.08 46 1023.3
20260905155525 22 263 3.2 11.3 0.00 0.28 0.08 46 1023.2
20260905155026 22 325 1.6 8.0 0.00 0.28 0.08 48 1023.3
20260905154623 22 326 3.2 8.0 0.00 0.28 0.08 47 1023.4
20260905154022 22 319 1.6 16.1 0.00 0.28 0.08 48 1023.3
20260905153522 22 342 4.8 20.9 0.00 0.28 0.08 49 1023.3
20260905153024 22 338 8.0 20.9 0.00 0.28 0.08 48 1023.2
20260905152522 23 341 3.2 17.7 0.00 0.28 0.08 46 1023.2
20260905152024 23 339 3.2 12.9 0.00 0.28 0.08 46 1023.2
20260905151522 23 256 1.6 14.5 0.00 0.28 0.08 46 1023.2
20260905151020 23 259 3.2 11.3 0.00 0.28 0.08 45 1023.2
20260905150521 23 267 3.2 14.5 0.00 0.28 0.08 46 1023.1
20260905150021 23 259 3.2 14.5 0.00 0.28 0.08 45 1023.1
20260905145523 23 313 4.8 16.1 0.00 0.28 0.08 44 1023.1
20260905145020 23 306 4.8 16.1 0.00 0.28 0.08 44 1023.1
20260905144520 23 309 3.2 17.7 0.00 0.28 0.08 46 1023.0
20260905144019 23 258 3.2 19.3 0.00 0.28 0.08 46 1023.1
20260905143519 23 286 6.4 19.3 0.00 0.28 0.08 46 1023.0
20260905143021 23 263 3.2 14.5 0.00 0.28 0.08 48 1023.0
20260905142519 22 272 6.4 14.5 0.00 0.28 0.08 47 1023.0
20260905142020 22 309 3.2 19.3 0.00 0.28 0.08 48 1023.0
20260905141519 21 318 4.8 19.3 0.00 0.28 0.08 51 1023.1
20260905141023 21 351 1.6 12.9 0.00 0.28 0.08 51 1023.0
20260905140522 21 287 3.2 16.1 0.00 0.28 0.08 50 1023.0
20260905140018 22 306 3.2 12.9 0.00 0.28 0.08 49 1023.0
20260905135519 22 291 3.2 29.0 0.00 0.28 0.08 47 1023.0
20260905135018 23 240 4.8 29.0 0.00 0.28 0.08 47 1022.9
20260905134516 23 281 8.0 14.5 0.00 0.28 0.08 45 1022.9
20260905134016 22 265 8.0 24.1 0.00 0.28 0.08 47 1022.8
20260905133521 22 265 4.8 24.1 0.00 0.28 0.08 48 1022.9
20260905133016 22 329 3.2 12.9 0.00 0.28 0.08 46 1022.9
20260905132516 22 302 4.8 19.3 0.00 0.28 0.08 46 1022.9
20260905132016 22 330 3.2 19.3 0.00 0.28 0.08 47 1022.9
20260905131516 23 272 4.8 20.9 0.00 0.28 0.08 46 1022.8
20260905131015 23 336 4.8 20.9 0.00 0.28 0.08 46 1022.8
20260905130517 22 267 8.0 24.1 0.00 0.28 0.08 46 1022.7
20260905130014 23 261 9.7 24.1 0.00 0.28 0.08 47 1022.7
20260905125514 23 325 3.2 12.9 0.00 0.28 0.08 47 1022.7
20260905125017 22 317 4.8 14.5 0.00 0.28 0.08 47 1022.7
20260905124519 23 338 6.4 25.7 0.00 0.28 0.08 45 1022.7
20260905124013 22 344 8.0 25.7 0.00 0.28 0.08 49 1022.6
20260905123513 23 281 4.8 19.3 0.00 0.28 0.08 49 1022.5
20260905123013 23 263 3.2 16.1 0.00 0.28 0.08 46 1022.5
20260905122515 23 321 3.2 22.5 0.00 0.28 0.08 48 1022.5
20260905122014 23 302 4.8 24.1 0.00 0.28 0.08 50 1022.5
20260905121512 23 276 9.7 32.2 0.00 0.28 0.08 48 1022.4
20260905121013 23 306 3.2 20.9 0.00 0.28 0.08 49 1022.6
20260905120512 22 265 6.4 20.9 0.00 0.28 0.08 48 1022.5
20260905120018 23 286 3.2 22.5 0.00 0.28 0.08 48 1022.5
20260905115511 22 260 4.8 22.5 0.00 0.28 0.08 48 1022.4
20260905115011 22 287 3.2 22.5 0.00 0.28 0.08 49 1022.5
20260905114510 23 278 3.2 22.5 0.00 0.28 0.08 50 1022.6
20260905114009 23 259 4.8 22.5 0.00 0.28 0.08 50 1022.6
20260905113508 22 258 4.8 24.1 0.00 0.28 0.08 50 1022.5
20260905113011 23 328 4.8 12.9 0.00 0.28 0.08 51 1022.5
20260905112509 22 262 3.2 17.7 0.00 0.28 0.08 54 1022.4
20260905112007 22 271 3.2 19.3 0.00 0.28 0.08 54 1022.5
20260905111505 22 253 6.4 25.7 0.00 0.28 0.08 56 1022.6
20260905111010 21 248 6.4 25.7 0.00 0.28 0.08 59 1022.5
20260905110504 22 253 8.0 19.3 0.00 0.28 0.08 55 1022.7
20260905110005 22 261 3.2 17.7 0.00 0.28 0.08 56 1022.5
20260905105505 21 262 6.4 27.4 0.00 0.28 0.08 58 1022.6
20260905105004 21 261 4.8 27.4 0.00 0.28 0.08 57 1022.6
20260905104502 21 271 11.3 20.9 0.00 0.28 0.08 57 1022.4
20260905104002 20 246 4.8 14.5 0.00 0.28 0.08 60 1022.5
20260905103503 20 280 3.2 11.3 0.00 0.28 0.08 58 1022.5
20260905103005 21 271 4.8 12.9 0.00 0.28 0.08 58 1022.6
20260905102501 21 328 3.2 12.9 0.00 0.28 0.08 57 1022.6
20260905102100 21 342 1.6 17.7 0.00 0.28 0.08 63 1022.6
20260905101559 20 253 6.4 17.7 0.00 0.28 0.08 65 1022.6
20260905101058 20 267 4.8 19.3 0.00 0.28 0.08 63 1022.7
20260905100559 20 261 4.8 19.3 0.00 0.28 0.08 65 1022.7
20260905100104 20 263 6.4 16.1 0.00 0.28 0.08 62 1022.7
20260905095557 20 265 8.0 17.7 0.00 0.28 0.08 61 1022.6
20260905095056 20 251 4.8 17.7 0.00 0.28 0.08 65 1022.6
20260905094555 20 260 4.8 16.1 0.00 0.28 0.08 64 1022.6
20260905094053 20 262 3.2 17.7 0.00 0.28 0.08 65 1022.6
20260905093553 20 254 6.4 17.7 0.00 0.28 0.08 66 1022.6
20260905093055 20 234 4.8 16.1 0.00 0.28 0.08 70 1022.5
20260905092551 19 248 3.2 12.9 0.00 0.28 0.08 70 1022.5
20260905092051 19 267 4.8 19.3 0.00 0.28 0.08 69 1022.4
20260905091556 18 254 3.2 19.3 0.00 0.28 0.08 70 1022.5
20260905091051 18 267 3.2 14.5 0.00 0.28 0.08 71 1022.3
20260905090550 19 265 4.8 17.7 0.00 0.28 0.08 69 1022.3
20260905090050 19 255 6.4 17.7 0.00 0.28 0.08 69 1022.3
20260905085549 19 256 3.2 22.5 0.00 0.28 0.08 68 1022.3
20260905085047 18 266 6.4 22.5 0.00 0.28 0.08 69 1022.2
20260905084545 18 265 4.8 22.5 0.00 0.28 0.08 75 1022.2
20260905084049 18 250 6.4 19.3 0.00 0.28 0.08 74 1022.0
20260905083546 18 244 8.0 17.7 0.00 0.28 0.08 74 1022.0
20260905083044 19 259 3.2 20.9 0.00 0.28 0.08 75 1022.0
20260905082543 18 265 8.0 20.9 0.00 0.28 0.08 76 1022.0
20260905082042 18 257 4.8 19.3 0.00 0.28 0.08 78 1021.8
20260905081544 18 247 9.7 20.9 0.00 0.28 0.08 78 1021.7
20260905081040 18 258 9.7 20.9 0.00 0.28 0.08 80 1021.9
20260905080541 18 251 4.8 19.3 0.00 0.28 0.08 80 1021.7
20260905080043 18 254 8.0 19.3 0.00 0.28 0.08 82 1021.6
20260905075539 18 246 8.0 14.5 0.00 0.28 0.08 83 1021.5
20260905075040 17 238 9.7 17.7 0.00 0.28 0.08 83 1021.5
20260905074536 17 236 11.3 17.7 0.00 0.28 0.08 84 1021.4
20260905074035 17 240 6.4 17.7 0.00 0.28 0.08 83 1021.4
20260905073535 17 250 4.8 17.7 0.00 0.28 0.08 84 1021.4
20260905073035 17 241 9.7 17.7 0.00 0.28 0.08 84 1021.5
20260905072533 17 250 8.0 17.7 0.00 0.28 0.08 85 1021.2
20260905072035 17 237 6.4 14.5 0.00 0.28 0.08 86 1021.2
20260905071531 17 236 1.6 8.0 0.00 0.28 0.08 88 1021.3
20260905071033 17 236 3.2 14.5 0.00 0.28 0.08 89 1021.2
20260905070529 17 236 8.0 14.5 0.00 0.28 0.08 91 1021.2
20260905070034 17 231 6.4 16.1 0.00 0.28 0.08 92 1021.1
20260905065529 17 248 8.0 16.1 0.00 0.28 0.08 93 1021.1
20260905065028 16 213 4.8 9.7 0.00 0.28 0.08 93 1021.1
20260905064528 16 325 1.6 6.4 0.00 0.28 0.08 94 1021.0
20260905064026 16 329 1.6 4.8 0.00 0.28 0.08 94 1021.1
20260905063524 16 340 0.0 0.0 0.00 0.28 0.08 94 1021.1
20260905063024 15 340 0.0 0.0 0.00 0.28 0.08 94 1021.0
20260905062522 15 340 0.0 0.0 0.00 0.28 0.08 94 1020.9
20260905062022 15 340 0.0 0.0 0.00 0.28 0.08 94 1020.9
20260905061522 15 340 0.0 0.0 0.00 0.28 0.08 94 1020.8
20260905061021 15 340 0.0 0.0 0.00 0.28 0.08 94 1020.7
20260905060520 15 340 0.0 0.0 0.00 0.28 0.08 94 1020.5
20260905060021 14 340 0.0 1.6 0.00 0.28 0.08 94 1020.4
20260905055519 14 340 0.0 1.6 0.00 0.28 0.08 94 1020.5
20260905055022 14 340 0.0 0.0 0.00 0.28 0.08 94 1020.5
20260905054519 14 340 0.0 0.0 0.00 0.28 0.08 94 1020.4
20260905054018 14 340 0.0 0.0 0.00 0.28 0.08 94 1020.3
20260905053517 14 340 0.0 0.0 0.00 0.28 0.08 94 1020.3
20260905053017 14 340 0.0 0.0 0.00 0.28 0.08 94 1020.2
20260905052516 14 340 0.0 0.0 0.00 0.28 0.08 94 1019.9
20260905052016 14 340 0.0 0.0 0.00 0.28 0.08 94 1020.0
20260905051517 14 340 0.0 0.0 0.00 0.28 0.08 94 1019.7
20260905051014 13 340 0.0 0.0 0.00 0.28 0.08 94 1019.6
20260905050514 13 340 0.0 0.0 0.00 0.28 0.08 94 1019.5
20260905050014 13 340 0.0 0.0 0.00 0.28 0.08 93 1019.4
20260905045512 13 340 0.0 0.0 0.00 0.28 0.08 94 1019.3
20260905045012 14 340 0.0 0.0 0.00 0.28 0.08 94 1019.3
20260905044513 14 340 0.0 3.2 0.00 0.28 0.08 94 1019.2
20260905044009 14 340 0.0 3.2 0.00 0.28 0.08 94 1019.1
20260905043509 14 340 0.0 0.0 0.00 0.28 0.08 94 1019.0
20260905043009 15 340 0.0 0.0 0.00 0.28 0.08 94 1019.1
20260905042509 15 340 0.0 0.0 0.00 0.28 0.08 94 1019.1
20260905042011 15 340 0.0 0.0 0.00 0.28 0.08 94 1019.1
20260905041510 15 340 0.0 0.0 0.00 0.28 0.08 94 1019.1
20260905041007 15 340 0.0 0.0 0.00 0.28 0.08 94 1019.0
20260905040508 15 340 0.0 0.0 0.00 0.28 0.08 94 1019.0